Time,TemperatureF,DewpointF,PressureIn,WindDirection,WindDirectionDegrees,WindSpeedMPH,WindSpeedGustMPH,Humidity,HourlyPrecipIn,Conditions,Clouds,dailyrainin,SoftwareType,DateUTC
2015-09-03 00:03:00,72.0,68.0,29.99,WSW,247,2.0,2.0,86,-99.99,,,-99.99,,2015-09-03 04:03:00,
2015-09-03 00:13:00,72.0,67.0,29.99,WSW,244,2.0,2.0,85,-99.99,,,-99.99,,2015-09-03 04:13:00,
2015-09-03 00:23:00,72.0,67.0,29.99,SW,225,0.0,2.0,84,-99.99,,,-99.99,,2015-09-03 04:23:00,
2015-09-03 00:33:00,71.0,66.0,29.99,SW,225,0.0,2.0,85,-99.99,,,-99.99,,2015-09-03 04:33:00,
2015-09-03 00:43:00,71.0,67.0,30.00,SW,232,1.0,2.0,86,-99.99,,,-99.99,,2015-09-03 04:43:00,
2015-09-03 00:53:00,71.0,67.0,29.99,SW,225,2.0,2.0,86,-99.99,,,-99.99,,2015-09-03 04:53:00,
2015-09-03 01:03:00,71.0,66.0,29.99,WSW,243,1.0,2.0,85,-99.99,,,-99.99,,2015-09-03 05:03:00,
2015-09-03 01:13:00,71.0,66.0,30.00,WSW,242,1.0,2.0,85,-99.99,,,-99.99,,2015-09-03 05:13:00,
2015-09-03 01:23:00,71.0,67.0,29.99,WSW,248,2.0,3.0,87,-99.99,,,-99.99,,2015-09-03 05:23:00,
2015-09-03 01:33:00,71.0,67.0,29.99,WSW,241,1.0,2.0,87,-99.99,,,-99.99,,2015-09-03 05:33:00,
2015-09-03 01:43:00,70.0,66.0,29.99,West,267,1.0,2.0,86,-99.99,,,-99.99,,2015-09-03 05:43:00,
2015-09-03 01:53:00,71.0,67.0,29.99,WSW,247,2.0,3.0,87,-99.99,,,-99.99,,2015-09-03 05:53:00,
2015-09-03 02:13:00,70.0,66.0,29.98,SW,215,1.0,2.0,87,-99.99,,,-99.99,,2015-09-03 06:13:00,
2015-09-03 02:23:00,71.0,67.0,29.98,SW,225,2.0,3.0,87,-99.99,,,-99.99,,2015-09-03 06:23:00,
2015-09-03 02:33:00,70.0,66.0,29.98,SW,225,1.0,2.0,87,-99.99,,,-99.99,,2015-09-03 06:33:00,
2015-09-03 02:44:00,71.0,67.0,29.97,SW,225,2.0,3.0,87,-99.99,,,-99.99,,2015-09-03 06:44:00,
2015-09-03 02:53:00,71.0,67.0,29.97,West,259,1.0,2.0,86,-99.99,,,-99.99,,2015-09-03 06:53:00,
2015-09-03 03:03:00,71.0,66.0,29.97,WSW,243,1.0,2.0,85,-99.99,,,-99.99,,2015-09-03 07:03:00,
2015-09-03 03:13:00,70.0,66.0,29.97,WSW,245,1.0,2.0,86,-99.99,,,-99.99,,2015-09-03 07:13:00,
2015-09-03 03:23:00,70.0,66.0,29.96,SW,225,3.0,4.0,86,-99.99,,,-99.99,,2015-09-03 07:23:00,
2015-09-03 03:33:00,71.0,67.0,29.96,SW,236,3.0,4.0,86,-99.99,,,-99.99,,2015-09-03 07:33:00,
2015-09-03 03:43:00,70.0,66.0,29.96,SW,228,2.0,2.0,86,-99.99,,,-99.99,,2015-09-03 07:43:00,
2015-09-03 03:53:00,71.0,67.0,29.96,SW,234,2.0,4.0,86,-99.99,,,-99.99,,2015-09-03 07:53:00,
2015-09-03 04:03:00,71.0,67.0,29.96,SW,235,2.0,3.0,86,-99.99,,,-99.99,,2015-09-03 08:03:00,
2015-09-03 04:13:00,71.0,66.0,29.97,SW,232,3.0,3.0,85,-99.99,,,-99.99,,2015-09-03 08:13:00,
2015-09-03 04:23:00,71.0,66.0,29.97,SW,231,3.0,3.0,85,-99.99,,,-99.99,,2015-09-03 08:23:00,
2015-09-03 04:33:00,70.0,65.0,29.97,SW,228,1.0,2.0,84,-99.99,,,-99.99,,2015-09-03 08:33:00,
2015-09-03 04:43:00,70.0,65.0,29.97,SW,225,1.0,2.0,85,-99.99,,,-99.99,,2015-09-03 08:43:00,
2015-09-03 04:53:00,69.0,64.0,29.97,SW,225,0.0,2.0,83,-99.99,,,-99.99,,2015-09-03 08:53:00,
2015-09-03 05:03:00,69.0,64.0,29.97,SW,225,1.0,2.0,84,-99.99,,,-99.99,,2015-09-03 09:03:00,
2015-09-03 05:12:00,69.0,64.0,29.98,West,270,0.0,2.0,84,-99.99,,,-99.99,,2015-09-03 09:12:00,
2015-09-03 05:33:00,68.0,63.0,29.97,North,0,0.0,0.0,84,-99.99,,,-99.99,,2015-09-03 09:33:00,
2015-09-03 05:43:00,68.0,63.0,29.97,NNW,342,0.0,2.0,84,-99.99,,,-99.99,,2015-09-03 09:43:00,
2015-09-03 05:53:00,68.0,63.0,29.98,West,270,0.0,2.0,83,-99.99,,,-99.99,,2015-09-03 09:53:00,
2015-09-03 06:03:00,68.0,63.0,29.98,West,281,1.0,2.0,85,-99.99,,,-99.99,,2015-09-03 10:03:00,
2015-09-03 06:12:00,67.0,62.0,29.98,SW,225,0.0,1.0,84,-99.99,,,-99.99,,2015-09-03 10:12:00,
2015-09-03 06:23:00,67.0,62.0,29.98,North,0,0.0,0.0,84,-99.99,,,-99.99,,2015-09-03 10:23:00,
2015-09-03 06:33:00,67.0,61.0,29.98,SW,225,0.0,2.0,81,-99.99,,,-99.99,,2015-09-03 10:33:00,
2015-09-03 06:53:00,67.0,61.0,29.99,SW,225,1.0,2.0,81,-99.99,,,-99.99,,2015-09-03 10:53:00,
2015-09-03 07:03:00,67.0,61.0,29.99,SW,225,0.0,1.0,82,-99.99,,,-99.99,,2015-09-03 11:03:00,
2015-09-03 07:13:00,68.0,62.0,29.99,SW,230,2.0,3.0,81,-99.99,,,-99.99,,2015-09-03 11:13:00,
2015-09-03 07:23:00,68.0,62.0,29.99,SW,233,2.0,2.0,82,-99.99,,,-99.99,,2015-09-03 11:23:00,
2015-09-03 07:34:00,68.0,62.0,29.99,West,270,1.0,2.0,82,-99.99,,,-99.99,,2015-09-03 11:34:00,
2015-09-03 07:44:00,68.0,62.0,29.99,SW,232,2.0,2.0,81,-99.99,,,-99.99,,2015-09-03 11:44:00,
2015-09-03 07:53:00,69.0,64.0,30.00,WSW,251,2.0,2.0,84,-99.99,,,-99.99,,2015-09-03 11:53:00,
2015-09-03 08:03:00,69.0,64.0,30.00,West,263,2.0,2.0,84,-99.99,,,-99.99,,2015-09-03 12:03:00,
2015-09-03 08:13:00,70.0,66.0,30.00,WSW,245,2.0,2.0,88,-99.99,,,-99.99,,2015-09-03 12:13:00,
2015-09-03 08:23:00,71.0,69.0,30.00,SW,225,2.0,2.0,92,-99.99,,,-99.99,,2015-09-03 12:23:00,
2015-09-03 08:33:00,72.0,70.0,30.01,SW,232,2.0,2.0,92,-99.99,,,-99.99,,2015-09-03 12:33:00,
2015-09-03 08:53:00,74.0,71.0,30.01,WSW,247,2.0,3.0,90,-99.99,,,-99.99,,2015-09-03 12:53:00,
2015-09-03 12:13:00,91.0,68.0,29.99,WSW,251,4.0,5.0,47,-99.99,,,-99.99,,2015-09-03 16:13:00,
2015-09-03 13:44:00,92.0,66.0,29.97,West,266,5.0,7.0,42,-99.99,,,-99.99,,2015-09-03 17:44:00,
2015-09-03 14:13:00,94.0,64.0,29.96,SW,216,5.0,7.0,37,-99.99,,,-99.99,,2015-09-03 18:13:00,
2015-09-03 14:44:00,95.0,64.0,29.96,SW,223,7.0,11.0,36,-99.99,,,-99.99,,2015-09-03 18:44:00,
2015-09-03 14:54:00,93.0,63.0,29.95,SW,233,8.0,11.0,37,-99.99,,,-99.99,,2015-09-03 18:54:00,
2015-09-03 15:03:00,91.0,63.0,29.95,WSW,250,7.0,11.0,40,-99.99,,,-99.99,,2015-09-03 19:03:00,
2015-09-03 15:14:00,91.0,64.0,29.94,WSW,237,4.0,4.0,41,-99.99,,,-99.99,,2015-09-03 19:14:00,
2015-09-03 15:24:00,96.0,62.0,29.94,SW,226,4.0,4.0,33,-99.99,,,-99.99,,2015-09-03 19:24:00,
2015-09-03 15:44:00,93.0,63.0,29.93,West,268,4.0,6.0,37,-99.99,,,-99.99,,2015-09-03 19:44:00,
2015-09-03 15:54:00,94.0,62.0,29.93,WSW,239,3.0,4.0,35,-99.99,,,-99.99,,2015-09-03 19:54:00,
2015-09-03 16:04:00,94.0,62.0,29.93,North,7,2.0,3.0,35,-99.99,,,-99.99,,2015-09-03 20:04:00,
2015-09-03 16:34:00,96.0,59.0,29.92,WSW,251,6.0,10.0,30,-99.99,,,-99.99,,2015-09-03 20:34:00,
2015-09-03 16:44:00,93.0,60.0,29.92,WSW,248,6.0,10.0,33,-99.99,,,-99.99,,2015-09-03 20:44:00,
2015-09-03 17:03:00,94.0,61.0,29.91,West,271,3.0,4.0,34,-99.99,,,-99.99,,2015-09-03 21:03:00,
2015-09-03 17:13:00,96.0,60.0,29.91,WSW,251,4.0,5.0,31,-99.99,,,-99.99,,2015-09-03 21:13:00,
2015-09-03 17:23:00,95.0,62.0,29.91,West,270,4.0,4.0,34,-99.99,,,-99.99,,2015-09-03 21:23:00,
2015-09-03 17:34:00,95.0,60.0,29.91,WSW,254,6.0,8.0,31,-99.99,,,-99.99,,2015-09-03 21:34:00,
2015-09-03 17:44:00,96.0,59.0,29.91,NW,305,5.0,8.0,29,-99.99,,,-99.99,,2015-09-03 21:44:00,
2015-09-03 18:13:00,94.0,61.0,29.90,West,281,5.0,-999.0,34,-99.99,,,-99.99,,2015-09-03 22:13:00,
2015-09-03 18:33:00,95.0,60.0,29.89,West,268,4.0,9.0,32,-99.99,,,-99.99,,2015-09-03 22:33:00,
2015-09-03 18:44:00,95.0,61.0,29.89,WNW,301,4.0,5.0,33,-99.99,,,-99.99,,2015-09-03 22:44:00,
2015-09-03 18:54:00,94.0,61.0,29.90,WSW,250,4.0,8.0,34,-99.99,,,-99.99,,2015-09-03 22:54:00,
2015-09-03 19:13:00,93.0,62.0,29.90,WSW,256,4.0,5.0,36,-99.99,,,-99.99,,2015-09-03 23:13:00,
2015-09-03 19:23:00,92.0,61.0,29.90,West,272,3.0,5.0,36,-99.99,,,-99.99,,2015-09-03 23:23:00,
2015-09-03 19:36:00,89.0,64.0,29.90,WSW,241,3.0,4.0,43,-99.99,,,-99.99,,2015-09-03 23:36:00,
2015-09-03 19:44:00,89.0,64.0,29.90,WSW,244,3.0,4.0,43,-99.99,,,-99.99,,2015-09-03 23:44:00,
2015-09-03 19:53:00,87.0,64.0,29.90,WSW,240,2.0,2.0,46,-99.99,,,-99.99,,2015-09-03 23:53:00,
2015-09-03 20:03:00,87.0,64.0,29.90,WSW,244,1.0,2.0,46,-99.99,,,-99.99,,2015-09-04 00:03:00,
2015-09-03 20:13:00,86.0,64.0,29.90,SW,225,1.0,2.0,48,-99.99,,,-99.99,,2015-09-04 00:13:00,